GW4769 Weather Reports


Display with metric or nautical units.
time (UTC)temp
F
wind
direction
speed
MPH
gust
MPH
rain 1hr
in
rain 24hr
in
rain mn
in
humidity
%
barometer
mb
20260906103031 78 306 0.0 2.0 0.00 0.00 0.00 97 1010.4
20260906102506 78 295 0.0 1.0 0.00 0.00 0.00 97 1010.4
20260906102004 78 314 0.0 0.0 0.00 0.00 0.00 97 1010.4
20260906101512 78 310 0.0 0.0 0.00 0.00 0.00 97 1010.4
20260906101005 78 310 0.0 1.0 0.00 0.00 0.00 97 1010.4
20260906100506 78 310 0.0 1.0 0.00 0.00 0.00 97 1010.3
20260906100020 78 326 0.0 2.0 0.00 0.00 0.00 97 1010.3
20260906095509 78 328 0.0 2.0 0.00 0.00 0.00 97 1010.3
20260906095009 78 339 1.0 1.0 0.00 0.00 0.00 97 1010.3
20260906094521 78 308 0.0 0.0 0.00 0.00 0.00 97 1010.4
20260906094011 78 309 0.0 0.0 0.00 0.00 0.00 97 1010.4
20260906093514 78 308 0.0 1.0 0.00 0.00 0.00 97 1010.3
20260906093032 78 308 0.0 1.0 0.00 0.00 0.00 97 1010.2
20260906092514 78 308 0.0 0.0 0.00 0.00 0.00 97 1010.0
20260906092018 78 308 0.0 0.0 0.00 0.00 0.00 97 1009.9
20260906091535 78 308 0.0 0.0 0.00 0.00 0.00 97 1009.8
20260906091005 78 308 0.0 0.0 0.00 0.00 0.00 97 1009.8
20260906090503 78 308 0.0 0.0 0.00 0.00 0.00 97 1009.9
20260906090013 78 308 0.0 0.0 0.00 0.00 0.00 97 1010.1
20260906085507 79 308 0.0 0.0 0.00 0.00 0.00 97 1010.1
20260906085008 79 308 0.0 0.0 0.00 0.00 0.00 97 1010.1
20260906084518 79 308 0.0 0.0 0.00 0.00 0.00 97 1010.1
20260906084013 79 308 0.0 0.0 0.00 0.00 0.00 97 1010.2
20260906083512 79 308 0.0 0.0 0.00 0.00 0.00 97 1010.2
20260906083022 79 308 0.0 0.0 0.00 0.00 0.00 97 1010.2
20260906082512 79 308 0.0 0.0 0.00 0.00 0.00 97 1010.2
20260906082014 79 308 0.0 0.0 0.00 0.00 0.00 97 1010.2
20260906081541 79 308 0.0 0.0 0.00 0.00 0.00 97 1010.3
20260906081015 79 308 0.0 0.0 0.00 0.00 0.00 97 1010.3
20260906080516 79 308 0.0 0.0 0.00 0.00 0.00 97 1010.3
20260906080032 79 308 0.0 1.0 0.00 0.00 0.00 97 1010.3
20260906075517 79 308 0.0 1.0 0.00 0.00 0.00 97 1010.4
20260906075005 79 323 0.0 1.0 0.00 0.00 0.00 96 1010.5
20260906074519 80 265 0.0 0.0 0.00 0.00 0.00 96 1010.5
20260906074006 80 264 0.0 0.0 0.00 0.00 0.00 96 1010.5
20260906073506 80 265 0.0 0.0 0.00 0.00 0.00 96 1010.3
20260906073023 80 265 0.0 0.0 0.00 0.00 0.00 96 1010.4
20260906072510 80 314 0.0 0.0 0.00 0.00 0.00 96 1010.5
20260906072012 80 314 0.0 0.0 0.00 0.00 0.00 96 1010.7
20260906071526 80 314 0.0 3.0 0.00 0.00 0.00 96 1010.7
20260906071017 80 314 0.0 3.0 0.00 0.00 0.00 96 1010.7
20260906070516 80 330 2.0 3.0 0.00 0.00 0.00 96 1010.8
20260906070030 80 189 0.0 0.0 0.00 0.00 0.00 96 1010.8
20260906065515 80 189 0.0 0.0 0.00 0.00 0.00 96 1010.8
20260906065019 80 189 0.0 0.0 0.00 0.00 0.00 96 1010.8
20260906064534 80 189 0.0 0.0 0.00 0.00 0.00 96 1010.7
20260906064016 80 189 0.0 0.0 0.00 0.00 0.00 96 1010.7
20260906063507 80 189 0.0 0.0 0.00 0.00 0.00 96 1010.6
20260906063017 80 189 0.0 0.0 0.00 0.00 0.00 95 1010.5
20260906062509 80 189 0.0 0.0 0.00 0.00 0.00 95 1010.6
20260906062009 80 189 0.0 0.0 0.00 0.00 0.00 95 1010.6
20260906061526 80 189 0.0 0.0 0.00 0.00 0.00 95 1010.6
20260906061011 81 188 0.0 2.0 0.00 0.00 0.00 95 1010.6
20260906060513 81 203 0.0 2.0 0.00 0.00 0.00 95 1010.7
20260906060028 81 221 0.0 2.0 0.00 0.00 0.00 95 1010.6
20260906055515 81 144 0.0 3.0 0.00 0.00 0.00 95 1010.6
20260906055017 81 174 0.0 3.0 0.00 0.00 0.00 95 1010.7
20260906054535 81 178 0.0 3.0 0.00 0.00 0.00 95 1010.7
20260906054016 81 217 0.0 3.0 0.00 0.00 0.00 95 1010.7
20260906053517 81 267 0.0 3.0 0.00 0.00 0.00 95 1010.7
20260906053035 81 214 0.0 3.0 0.00 0.00 0.00 95 1010.8
20260906052518 81 251 0.0 4.0 0.00 0.00 0.00 95 1010.9
20260906052008 81 141 0.0 4.0 0.00 0.00 0.00 95 1010.8
20260906051519 81 252 0.0 3.0 0.00 0.00 0.00 95 1010.9
20260906051007 81 279 0.0 3.0 0.00 0.00 0.00 95 1011.1
20260906050512 81 231 0.0 3.0 0.00 0.00 0.00 95 1011.1
20260906050011 81 203 0.0 3.0 0.00 0.00 0.00 94 1011.1
20260906045503 81 165 1.0 3.0 0.00 0.00 0.00 94 1011.0
20260906045003 81 169 0.0 3.0 0.00 0.00 0.00 94 1011.0
20260906044504 81 160 0.0 3.0 0.00 0.00 0.00 94 1011.1
20260906044004 82 220 0.0 3.0 0.00 0.00 0.00 94 1011.1
20260906043504 82 232 0.0 3.0 0.00 0.00 0.00 94 1011.2
20260906043010 82 172 1.0 3.0 0.00 0.00 0.00 94 1011.2
20260906042504 82 328 0.0 3.0 0.00 0.00 0.00 94 1011.3
20260906042004 82 191 0.0 4.0 0.00 0.00 0.00 94 1011.2
20260906041516 82 169 1.0 4.0 0.00 0.00 0.00 94 1011.3
20260906041006 82 149 0.0 2.0 0.00 0.00 0.00 94 1011.4
20260906040513 82 124 0.0 2.0 0.00 0.00 0.00 94 1011.5
20260906040028 82 216 0.0 2.0 0.00 0.00 0.00 94 1011.6
20260906035509 82 198 0.0 1.0 0.00 0.00 0.00 93 1011.6
20260906035012 82 219 0.0 2.0 0.00 0.00 0.00 93 1011.6
20260906034529 82 245 0.0 2.0 0.00 0.00 0.00 93 1011.7
20260906034002 82 242 0.0 2.0 0.00 0.00 0.00 93 1011.6
20260906033503 82 186 0.0 2.0 0.00 0.00 0.00 93 1011.6
20260906033019 82 192 0.0 2.0 0.00 0.00 0.00 93 1011.7
20260906032503 82 90 0.0 3.0 0.00 0.00 0.00 93 1011.7
20260906032004 83 210 0.0 4.0 0.00 0.00 0.00 92 1011.9
20260906031513 83 256 0.0 4.0 0.00 0.00 0.00 92 1011.8
20260906031007 83 234 0.0 4.0 0.00 0.00 0.00 92 1011.8
20260906030509 83 254 1.0 6.0 0.00 0.00 0.00 92 1011.7
20260906030015 83 201 0.0 6.0 0.00 0.00 0.00 92 1011.6
20260906025507 83 278 1.0 6.0 0.00 0.00 0.00 92 1011.5
20260906025012 83 160 1.0 6.0 0.00 0.00 0.00 92 1011.4
20260906024523 83 185 2.0 8.0 0.00 0.00 0.00 92 1011.3
20260906024014 83 203 4.0 8.0 0.00 0.00 0.00 92 1011.3
20260906023512 83 217 3.0 8.0 0.00 0.00 0.00 92 1011.2
20260906023027 83 208 2.0 8.0 0.00 0.00 0.00 92 1011.2
20260906022503 83 142 4.0 8.0 0.00 0.00 0.00 92 1010.8
20260906022003 83 208 3.0 9.0 0.00 0.00 0.00 92 1010.7
20260906021506 83 200 4.0 11.0 0.00 0.00 0.00 92 1010.5
20260906021005 83 206 4.0 11.0 0.00 0.00 0.00 91 1010.3
20260906020505 83 169 5.0 11.0 0.00 0.00 0.00 91 1010.1
20260906020012 83 174 4.0 10.0 0.00 0.00 0.00 91 1010.0
20260906015504 83 210 6.0 10.0 0.00 0.00 0.00 91 1009.9
20260906015008 83 163 5.0 10.0 0.00 0.00 0.00 91 1009.9
20260906014519 83 200 4.0 10.0 0.00 0.00 0.00 91 1010.1
20260906014008 83 213 5.0 10.0 0.00 0.00 0.00 91 1009.9
20260906013510 83 211 4.0 8.0 0.00 0.00 0.00 91 1010.2
20260906013028 83 200 4.0 8.0 0.00 0.00 0.00 91 1010.7
20260906012517 83 205 2.0 6.0 0.00 0.00 0.00 91 1010.9
20260906012014 83 193 3.0 5.0 0.00 0.00 0.00 91 1011.0
20260906011536 83 194 2.0 4.0 0.00 0.00 0.00 91 1011.1
20260906011015 83 200 2.0 6.0 0.00 0.00 0.00 90 1011.2
20260906010503 83 193 2.0 6.0 0.00 0.00 0.00 90 1011.2
20260906010010 83 160 2.0 6.0 0.00 0.00 0.00 90 1011.1
20260906005504 83 179 2.0 6.0 0.00 0.00 0.00 90 1011.1
20260906005005 83 207 4.0 6.0 0.00 0.00 0.00 90 1011.0
20260906004515 83 176 4.0 6.0 0.00 0.00 0.00 90 1011.1
20260906004009 83 188 4.0 5.0 0.00 0.00 0.00 90 1011.2
20260906003506 83 173 2.0 6.0 0.00 0.00 0.00 89 1011.3
20260906003024 83 186 3.0 6.0 0.00 0.00 0.00 89 1011.2
20260906002512 83 160 3.0 4.0 0.00 0.00 0.00 89 1011.2
20260906002012 83 181 0.0 6.0 0.00 0.00 0.00 89 1011.2
20260906001529 83 209 2.0 6.0 0.00 0.00 0.00 89 1011.3
20260906001011 84 219 2.0 6.0 0.00 0.00 0.00 89 1011.4
20260906000513 84 236 1.0 5.0 0.00 0.00 0.00 89 1011.5
20260906000033 84 191 1.0 6.0 0.00 0.00 0.00 89 1011.4
20260905235515 84 200 3.0 6.0 0.00 0.00 0.00 88 1011.4
20260905235020 84 204 2.0 6.0 0.00 0.00 0.00 88 1011.3
20260905234512 84 205 2.0 6.0 0.00 0.00 0.00 88 1011.3
20260905234004 84 188 3.0 5.0 0.00 0.00 0.00 87 1011.3
20260905233506 84 203 2.0 6.0 0.00 0.00 0.00 87 1011.3
20260905233015 84 160 2.0 10.0 0.00 0.00 0.00 87 1011.3
20260905232512 84 188 4.0 10.0 0.00 0.00 0.00 86 1011.1
20260905232008 85 176 3.0 7.0 0.00 0.00 0.00 87 1011.1
20260905231523 85 214 4.0 9.0 0.00 0.00 0.00 86 1011.1
20260905231010 85 226 2.0 10.0 0.00 0.00 0.00 86 1011.2
20260905230511 85 187 6.0 12.0 0.00 0.00 0.00 85 1011.1
20260905230030 86 168 5.0 12.0 0.00 0.00 0.00 84 1011.2
20260905225515 86 169 5.0 14.0 0.00 0.00 0.00 84 1011.1
20260905225018 86 210 7.0 14.0 0.00 0.00 0.00 84 1011.0
20260905224540 86 167 8.0 13.0 0.00 0.00 0.00 83 1011.0
20260905224019 86 147 7.0 13.0 0.00 0.00 0.00 84 1011.1
20260905223515 86 195 7.0 14.0 0.00 0.00 0.00 84 1011.0
20260905223010 86 188 7.0 14.0 0.00 0.00 0.00 83 1011.2
20260905222509 87 167 7.0 13.0 0.00 0.00 0.00 82 1011.1
20260905222008 87 128 7.0 13.0 0.00 0.00 0.00 83 1011.1
20260905221519 87 221 7.0 11.0 0.00 0.00 0.00 82 1011.0
20260905221009 87 203 6.0 12.0 0.00 0.00 0.00 81 1010.9
20260905220510 88 188 7.0 12.0 0.00 0.00 0.00 81 1010.9
20260905220030 88 208 4.0 12.0 0.00 0.00 0.00 81 1010.9
20260905215513 88 187 7.0 11.0 0.00 0.00 0.00 81 1010.9
20260905215012 88 212 6.0 10.0 0.00 0.00 0.00 80 1011.0
20260905214530 88 205 6.0 11.0 0.00 0.00 0.00 80 1011.1
20260905214014 88 179 9.0 11.0 0.00 0.00 0.00 79 1011.2
20260905213516 89 191 6.0 12.0 0.00 0.00 0.00 79 1011.2
20260905213033 89 207 5.0 12.0 0.00 0.00 0.00 80 1011.1
20260905212515 89 165 6.0 11.0 0.00 0.00 0.00 79 1011.0
20260905212017 89 191 5.0 10.0 0.00 0.00 0.00 79 1010.8
20260905211532 89 178 6.0 10.0 0.00 0.00 0.00 80 1010.8
20260905211007 89 169 5.0 9.0 0.00 0.00 0.00 80 1010.6
20260905210511 89 172 5.0 9.0 0.00 0.00 0.00 79 1010.6
20260905210019 88 186 5.0 12.0 0.00 0.00 0.00 80 1010.7
20260905205511 88 177 6.0 12.0 0.00 0.00 0.00 79 1010.7
20260905205012 88 187 6.0 11.0 0.00 0.00 0.00 80 1010.7
20260905204527 88 210 5.0 11.0 0.00 0.00 0.00 80 1010.6
20260905204013 88 180 7.0 11.0 0.00 0.00 0.00 79 1010.6
20260905203514 88 183 7.0 11.0 0.00 0.00 0.00 80 1010.5
20260905203033 88 205 6.0 12.0 0.00 0.00 0.00 79 1010.5
20260905202516 88 196 7.0 12.0 0.00 0.00 0.00 79 1010.6
20260905202014 88 156 6.0 11.0 0.00 0.00 0.00 79 1010.5
20260905201536 89 173 5.0 10.0 0.00 0.00 0.00 79 1010.6
20260905201020 88 194 5.0 11.0 0.00 0.00 0.00 80 1010.5
20260905200517 88 214 8.0 12.0 0.00 0.00 0.00 80 1010.6
20260905200043 88 159 9.0 12.0 0.00 0.00 0.00 80 1010.6
20260905195508 88 211 5.0 11.0 0.00 0.00 0.00 79 1010.7
20260905195008 88 203 6.0 11.0 0.00 0.00 0.00 80 1010.7
20260905194524 88 178 6.0 9.0 0.00 0.00 0.00 78 1010.8
20260905194003 88 189 5.0 10.0 0.00 0.00 0.00 78 1010.8
20260905193505 88 180 5.0 10.0 0.00 0.00 0.00 78 1010.8
20260905193004 88 163 5.0 10.0 0.00 0.00 0.00 78 1010.8
20260905192503 88 188 5.0 12.0 0.00 0.00 0.00 78 1011.0
20260905192004 88 165 6.0 12.0 0.00 0.00 0.00 77 1011.1
20260905191508 89 186 4.0 10.0 0.00 0.00 0.00 77 1011.2
20260905191006 89 209 5.0 11.0 0.00 0.00 0.00 77 1011.2
20260905190503 88 158 4.0 11.0 0.00 0.00 0.00 76 1011.2
20260905190010 89 153 5.0 10.0 0.00 0.00 0.00 76 1011.3
20260905185505 89 209 5.0 10.0 0.00 0.00 0.00 75 1011.4
20260905185006 89 183 5.0 9.0 0.00 0.00 0.00 76 1011.5
20260905184518 89 226 5.0 9.0 0.00 0.00 0.00 76 1011.8
20260905184008 88 193 6.0 11.0 0.00 0.00 0.00 76 1011.9
20260905183509 89 205 6.0 11.0 0.00 0.00 0.00 76 1012.0
20260905183026 89 210 5.0 10.0 0.00 0.00 0.00 75 1012.0
20260905182513 89 173 4.0 11.0 0.00 0.00 0.00 76 1012.2
20260905182003 89 170 7.0 13.0 0.00 0.00 0.00 75 1012.1
20260905181503 89 219 4.0 13.0 0.00 0.00 0.00 76 1012.2
20260905181004 89 187 5.0 13.0 0.00 0.00 0.00 76 1012.3
20260905180504 89 167 7.0 11.0 0.00 0.00 0.00 76 1012.3
20260905180009 89 185 6.0 11.0 0.00 0.00 0.00 75 1012.4
20260905175503 89 191 6.0 13.0 0.00 0.00 0.00 76 1012.5
20260905175004 89 193 5.0 13.0 0.00 0.00 0.00 75 1012.6
20260905174516 89 160 5.0 11.0 0.00 0.00 0.00 76 1012.8
20260905174010 89 152 5.0 10.0 0.00 0.00 0.00 74 1013.0
20260905173508 89 206 4.0 10.0 0.00 0.00 0.00 73 1013.0
20260905173026 89 176 7.0 10.0 0.00 0.00 0.00 71 1012.9
20260905172510 89 125 5.0 9.0 0.00 0.00 0.00 71 1013.1
20260905172012 89 210 5.0 9.0 0.00 0.00 0.00 73 1013.2
20260905171536 88 230 2.0 9.0 0.00 0.00 0.00 75 1013.2
20260905171011 87 250 3.0 10.0 0.00 0.00 0.00 78 1013.2
20260905170514 86 62 5.0 10.0 0.00 0.00 0.00 83 1013.3
20260905170009 85 63 3.0 9.0 0.00 0.00 0.00 84 1013.3
20260905165503 85 91 5.0 7.0 0.00 0.00 0.00 85 1013.4
20260905165007 85 101 4.0 7.0 0.00 0.00 0.00 84 1013.5
20260905164509 85 108 5.0 7.0 0.00 0.00 0.00 84 1013.6
20260905164006 86 105 5.0 7.0 0.00 0.00 0.00 83 1013.7
20260905163507 85 87 4.0 8.0 0.00 0.00 0.00 83 1013.8
20260905163016 85 91 5.0 8.0 0.00 0.00 0.00 83 1013.7
20260905162512 86 129 3.0 5.0 0.00 0.00 0.00 83 1013.8
20260905162010 86 91 3.0 5.0 0.00 0.00 0.00 81 1013.9
20260905161522 86 77 3.0 5.0 0.00 0.00 0.00 80 1014.0
20260905161013 87 98 2.0 7.0 0.00 0.00 0.00 79 1014.0
20260905160513 87 131 3.0 7.0 0.00 0.00 0.00 80 1014.0
20260905160048 88 120 5.0 7.0 0.00 0.00 0.00 79 1014.1
20260905155514 89 104 4.0 8.0 0.00 0.00 0.00 76 1014.1
20260905155018 88 152 2.0 8.0 0.00 0.00 0.00 76 1014.1
20260905154508 88 148 3.0 9.0 0.00 0.00 0.00 75 1014.0
20260905154004 88 138 3.0 9.0 0.00 0.00 0.00 75 1014.0
20260905153505 88 137 5.0 8.0 0.00 0.00 0.00 74 1014.1
20260905153019 89 162 3.0 7.0 0.00 0.00 0.00 74 1014.2
20260905152511 89 96 1.0 5.0 0.00 0.00 0.00 73 1014.1
20260905152005 89 311 1.0 6.0 0.00 0.00 0.00 72 1014.1
20260905151518 89 213 2.0 6.0 0.00 0.00 0.00 74 1014.2
20260905151012 88 26 0.0 5.0 0.00 0.00 0.00 76 1014.1
20260905150510 88 170 3.0 5.0 0.00 0.00 0.00 75 1014.1
20260905150024 87 70 2.0 4.0 0.00 0.00 0.00 77 1014.1
20260905145509 87 145 1.0 4.0 0.00 0.00 0.00 76 1014.2
20260905145018 87 258 1.0 4.0 0.00 0.00 0.00 77 1014.2
20260905144527 88 251 1.0 4.0 0.00 0.00 0.00 77 1014.2
20260905144018 87 216 1.0 4.0 0.00 0.00 0.00 78 1014.2
20260905143516 87 284 1.0 4.0 0.00 0.00 0.00 78 1014.2
20260905143031 87 271 1.0 5.0 0.00 0.00 0.00 81 1014.1
20260905142504 86 351 3.0 5.0 0.00 0.00 0.00 80 1014.2
20260905142004 86 203 1.0 5.0 0.00 0.00 0.00 80 1014.1
20260905141512 86 285 2.0 6.0 0.00 0.00 0.00 80 1014.2
20260905141005 85 319 1.0 7.0 0.00 0.00 0.00 82 1014.2
20260905140509 85 294 3.0 7.0 0.00 0.00 0.00 81 1014.1
20260905140018 85 346 3.0 7.0 0.00 0.00 0.00 83 1014.1
20260905135510 84 301 1.0 5.0 0.00 0.00 0.00 85 1014.2
20260905135009 84 247 2.0 8.0 0.00 0.00 0.00 87 1014.2
20260905134529 83 1 4.0 8.0 0.00 0.00 0.00 86 1014.3
20260905134014 83 307 5.0 8.0 0.00 0.00 0.00 90 1014.2
20260905133513 82 7 2.0 5.0 0.00 0.00 0.00 89 1014.3
20260905133027 82 328 3.0 5.0 0.00 0.00 0.00 89 1014.2
20260905132514 83 294 2.0 8.0 0.00 0.00 0.00 89 1014.3
20260905132014 83 303 2.0 8.0 0.00 0.00 0.00 90 1014.3
20260905131532 83 6 6.0 8.0 0.00 0.01 0.00 90 1014.3
20260905131003 83 17 5.0 8.0 0.00 0.01 0.00 90 1014.3
20260905130509 83 358 4.0 7.0 0.00 0.01 0.00 91 1014.2
20260905130015 82 1 4.0 7.0 0.00 0.01 0.00 91 1014.2
20260905125507 82 321 3.0 6.0 0.00 0.01 0.00 91 1014.3
20260905125009 82 340 4.0 6.0 0.00 0.01 0.00 91 1014.3
20260905124536 82 336 3.0 6.0 0.00 0.01 0.00 90 1014.3
20260905124011 83 331 2.0 6.0 0.00 0.01 0.00 91 1014.3
20260905123512 82 337 4.0 6.0 0.00 0.01 0.00 91 1014.2
20260905123028 83 317 3.0 5.0 0.00 0.01 0.00 90 1014.1
20260905122514 83 319 1.0 4.0 0.00 0.01 0.00 91 1014.3
20260905122014 83 360 0.0 2.0 0.00 0.01 0.00 92 1014.2
20260905121529 82 4 0.0 2.0 0.00 0.01 0.00 93 1014.1
20260905121016 82 327 0.0 3.0 0.00 0.01 0.00 93 1014.2
20260905120516 81 316 1.0 3.0 0.00 0.01 0.00 93 1014.2
20260905120033 81 324 2.0 4.0 0.00 0.01 0.00 93 1014.3
20260905115518 81 354 2.0 5.0 0.00 0.01 0.00 94 1014.2
20260905115009 81 328 3.0 5.0 0.00 0.03 0.00 94 1014.2
20260905114518 81 333 3.0 5.0 0.00 0.06 0.00 94 1014.1
20260905114009 81 344 3.0 6.0 0.00 0.06 0.00 94 1014.1
20260905113510 80 311 2.0 6.0 0.00 0.06 0.00 95 1014.1
20260905113026 80 352 4.0 6.0 0.00 0.06 0.00 95 1014.0
20260905112512 80 329 2.0 5.0 0.00 0.06 0.00 95 1014.0
20260905112012 79 319 2.0 3.0 0.00 0.06 0.00 94 1014.0
20260905111532 79 316 0.0 0.0 0.00 0.06 0.00 94 1013.9
20260905111013 79 316 0.0 0.0 0.00 0.06 0.00 94 1013.9
20260905110516 79 317 0.0 1.0 0.00 0.06 0.00 94 1013.8
20260905110029 79 317 0.0 1.0 0.00 0.06 0.00 94 1013.8
20260905105502 79 277 0.0 0.0 0.00 0.06 0.00 94 1013.9
20260905105002 79 251 0.0 0.0 0.00 0.06 0.00 94 1013.8
20260905104503 79 251 0.0 0.0 0.00 0.06 0.00 93 1013.8
20260905104002 79 250 0.0 0.0 0.00 0.06 0.00 93 1013.8
20260905103505 80 250 0.0 0.0 0.00 0.06 0.00 93 1013.8